Location: Canazei
(46.4667°N, 11.7667°E)
Time: 17:30:22
(UTC+00:00)

X-37B - Pass Details

Date: 21 April 2021
Orbit: 386 x 389 km, 45.0° (Epoch: 08 May)

Event Time Altitude Azimuth Distance (km) Brightness Sun altitude
Exits shadow 03:33:22 - 266° (W) 1,507 3.0 -7.5°
Reaches altitude 10° 03:33:36 10° 266° (W) 1,415 2.8 -7.5°
Maximum altitude 03:36:46 68° 183° (S) 421 0.6 -7.0°
Drops below altitude 10° 03:39:56 10° 100° (E) 1,412 4.4 -6.5°
Sets 03:42:00 0° 97° (E) 2,265 5.6 -6.2°
